Simultaneous Nadir Overpasses (SNOs) Predictions

Prediction of SNOs between GOES-16 and NOAA-21 Satellite Orbit:

Table of predicted SNOs for the next 14.0 days since TLE Epoch: 1/27/2024
Index Date Time (GOES-16) GOES-16 Lat,Lon NOAA-21 Lat,Lon Distance(km) Time Diff (sec)
1 01/27/2024 18:31:35 0.04, -75.21 -0.43, -77.29 236.66 80
2 01/28/2024 18:15:30 0.04, -75.22 0.60, -72.75 281.20 80
3 01/30/2024 06:37:16 -0.04, -75.23 0.56, -78.02 316.97 80
4 01/31/2024 06:15:49 -0.04, -75.24 -0.42, -73.47 201.12 80
5 02/01/2024 18:37:45 0.04, -75.26 -0.73, -78.77 400.43 80
6 02/02/2024 18:21:38 0.04, -75.27 0.25, -74.23 118.11 80
7 02/04/2024 06:43:25 -0.03, -75.29 0.89, -79.49 478.98 80
8 02/05/2024 06:21:58 -0.03, -75.30 -0.09, -74.95 39.45 80
9 02/07/2024 18:25:06 -0.01, -75.33 -0.11, -75.70 42.69 80
10 02/08/2024 18:09:01 -0.01, -75.34 0.93, -71.17 476.10 80
